Regional Weather Roundup
Issued by NWS

Home | Current Version | Previous Version | Graphics & Text | Print | Product List | Glossary On
Versions: 1 2 3 4 5 6 7 8 9 10 11 12 13 14 15 16 17 18 19 20 21 22 23 24 25 26 27 28 29 30 31 32 33 34 35 36 37 38 39 40 41 42 43 44 45 46 47 48 49 50
000
ASUS43 KOAX 221002
RWRNE

WEATHER ROUNDUP FOR NEBRASKA
NATIONAL WEATHER SERVICE OMAHA NE
500 AM CDT THU JUN 22 2017

NOTES: SATELLITE DATA IS BEING USED TO AUGMENT CLOUD COVER ABOVE
       12000 FEET.
       "FAIR" INDICATES FEW OR NO CLOUDS BELOW 12,000 FEET WITH NO
       SIGNIFICANT WEATHER AND/OR OBSTRUCTIONS TO VISIBILITY.

  * THESE STATIONS DO NOT REPORT WEATHER SUCH AS RAIN...SNOW OR FOG.

NEZ001>004-019>022-054>056-221100-
NEBRASKA PANHANDLE

CITY           SKY/WX    TMP DP  RH WIND       PRES   REMARKS
SCOTTSBLUFF    PTCLDY    66  47  50 NW6       29.75R
ALLIANCE       CLEAR     63  46  54 W3        29.70S
CHADRON        CLOUDY    61  52  72 NE7       29.72R
GORDON         FAIR      63  56  80 NE10      29.70F
KIMBALL        CLOUDY    65  44  45 W9        29.83F
SIDNEY         CLOUDY    62  46  55 S9        29.80S
$$

NEZ057>060-069>072-079>082-221100-
SOUTHWEST NEBRASKA

CITY           SKY/WX    TMP DP  RH WIND       PRES   REMARKS
NORTH PLATTE   CLEAR     74  56  53 S12G21    29.67F
IMPERIAL       PTCLDY    71  51  49 SW12      29.72F
LEXINGTON      CLEAR     74  56  53 S16G22    29.68F
MCCOOK         CLEAR     67  56  67 S12       29.70F
OGALLALA       CLEAR     66  52  61 W3        29.69F
$$

NEZ005>010-023>029-035>040-094-221100-
NORTH CENTRAL NEBRASKA

CITY           SKY/WX    TMP DP  RH WIND       PRES   REMARKS
VALENTINE      CLEAR     68  59  73 NE10      29.67F
AINSWORTH      CLEAR     67  65  94 CALM      29.66F
BROKEN BOW     CLEAR     75  58  55 SW10      29.67F
O`NEILL        CLEAR     70  67  91 W6        29.63F
ORD            CLEAR     75  55  49 SW13      29.62F
THEDFORD       CLEAR     74  60  61 S13       29.66S
$$

NEZ041-046>049-061>064-073>077-083>087-221100-
SOUTH CENTRAL NEBRASKA

CITY           SKY/WX    TMP DP  RH WIND       PRES   REMARKS
GRAND ISLAND   CLOUDY    69  59  70 SE8       29.70S
AURORA         MOCLDY    70  57  64 S8        29.70F
HASTINGS       PTCLDY    73  57  57 S8        29.71S
HEBRON         CLOUDY    77  60  55 S21       29.71S
HOLDREGE       CLEAR     71  55  57 SW13G21   29.69F
KEARNEY *      CLEAR     75  54  46 SW18      29.67F
YORK           CLOUDY    75  57  53 SW14      29.70R
$$

NEZ011>018-030>034-042>045-221100-
NORTHEAST NEBRASKA

CITY           SKY/WX    TMP DP  RH WIND       PRES   REMARKS
NORFOLK        CLEAR     72  56  57 S9        29.64S
ALBION         CLEAR     69  61  74 SE7       29.67R
BLAIR          CLOUDY    78  59  53 S18G25    29.66F
FREMONT        CLOUDY    77  59  53 S13G22    29.66F
TEKAMAH        PTCLDY    77  59  53 S12       29.64S
WAYNE          CLEAR     73  58  60 S12       29.63R
$$

NEZ050>053-065>068-078-088>093-221100-
SOUTHEAST NEBRASKA

CITY           SKY/WX    TMP DP  RH WIND       PRES   REMARKS
LINCOLN        CLOUDY    77  60  55 S12       29.69R
OMAHA EPPLEY   CLOUDY    79  60  52 S15       29.66F
BEATRICE       CLOUDY    77  61  57 SW7       29.70S
FALLS CITY     CLOUDY    74  60  61 S15       29.73F
NEBRASKA CITY  PTCLDY    76  56  50 S17G23    29.70F
PLATTSMOUTH    PTCLDY    76  57  53 S16       29.68F
$$

NEZ044-045-051>053-067-221100-
OMAHA AREA

CITY           SKY/WX    TMP DP  RH WIND       PRES   REMARKS
OMAHA EPPLEY   CLOUDY    79  60  52 S15       29.66F
BLAIR          CLOUDY    78  59  53 S18G25    29.66F
FREMONT        CLOUDY    77  59  53 S13G22    29.66F
MILLARD        CLOUDY    79  62  54 S8        29.68S
OFFUTT AFB     MOCLDY    77  59  54 S8        29.67F
PLATTSMOUTH    PTCLDY    76  57  53 S16       29.68F
WAHOO          FAIR      77  57  50 S13       29.67S
$$




USA.gov is the U.S. government's official web portal to all federal, state and local government web resources and services.